Probability
0 0 0 0 0 0 0 0 0 0 0 0 0 0 0 0 0 0 0 0 0 0 0 1 2 3 2 2 2 3 3 4 5 5 4 3 3 4 4 4 3 3 3 3
0 0 0 0 0 0 0 0 0 0 0 0 0 0 0 0 0 0 0 0 0 0 0 0 1 2 1 1 1 2 3 4 5 4 3 3 3 4 5 4 3 3 3 3
0 0 0 0 0 0 0 0 0 0 0 0 0 0 0 0 0 0 0 0 0 0 0 0 0 0 0 0 0 1 2 4 5 5 4 4 4 6 6 5 4 3 3 3
0 0 0 0 0 0 0 0 0 0 0 0 0 0 0 0 0 0 0 0 0 0 0 0 0 0 0 0 1 1 2 4 6 6 6 6 6 7 7 5 3 3 3 3
0 0 0 0 0 0 0 0 0 0 0 0 0 0 0 0 0 0 0 0 0 0 0 0 0 0 0 1 2 3 4 5 6 6 6 6 7 7 6 4 2 1 2 3
0 0 0 0 0 0 0 0 0 0 0 0 0 0 0 0 0 0 0 0 0 0 1 1 1 1 1 2 3 4 5 6 6 6 6 5 6 6 4 3 1 1 1 2
0 0 0 0 0 0 0 0 0 0 0 0 0 0 0 0 0 0 0 0 0 0 1 2 2 2 1 2 3 4 5 6 6 5 4 3 4 4 3 1 1 0 0 1
0 0 0 0 0 0 0 0 0 0 0 0 0 0 0 0 0 0 0 0 0 0 1 2 3 2 1 2 3 3 4 4 4 4 3 3 3 3 2 1 0 0 0 0
0 0 0 0 0 0 0 0 0 0 0 0 0 0 0 0 0 0 0 0 0 0 0 1 2 1 0 1 3 3 3 3 3 3 3 3 3 3 3 1 1 0 0 0
0 0 0 0 0 0 0 0 0 0 0 0 0 0 0 0 0 0 0 0 0 0 0 0 0 0 0 1 2 3 3 3 3 3 3 3 3 3 3 3 2 1 0 0
0 0 0 0 0 0 0 0 0 0 0 0 0 0 0 0 0 0 0 0 0 0 0 0 0 0 0 0 1 3 3 3 3 3 3 3 3 3 3 3 2 1 0 0
0 0 0 0 0 0 0 0 0 0 0 0 0 0 0 0 0 0 0 0 0 0 0 0 0 0 0 0 1 2 3 3 3 3 3 3 3 3 3 3 1 0 0 0
0 0 0 0 0 0 0 0 0 0 0 0 0 0 0 0 0 0 0 0 0 0 0 0 0 0 0 0 0 1 2 2 2 3 3 3 3 3 3 3 1 0 0 0
0 0 0 0 0 0 0 0 0 0 0 0 0 0 0 0 0 0 0 1 1 1 0 0 0 0 0 0 0 1 1 0 1 3 3 3 3 3 2 3 2 1 0 0
0 0 0 0 0 0 0 0 0 0 0 0 0 0 0 0 0 0 0 1 1 1 0 0 0 0 0 0 0 1 1 1 1 2 3 3 3 1 1 2 3 3 1 0
0 0 0 0 0 0 0 0 0 0 0 0 0 0 0 0 0 0 0 0 0 0 0 0 0 0 0 0 0 1 2 2 1 2 3 3 3 1 0 1 3 3 2 1
0 0 0 0 0 0 0 0 0 0 0 0 0 0 0 0 0 0 0 0 0 0 0 0 0 0 0 0 0 1 2 3 3 3 3 4 4 2 0 0 1 2 3 3
0 0 0 0 0 0 0 0 0 0 0 0 0 0 0 0 0 0 0 0 0 0 0 0 0 0 0 0 0 0 1 2 2 3 3 3 3 1 0 0 1 1 2 3
0 0 0 0 0 0 0 0 0 0 0 0 0 0 0 0 0 0 0 0 0 0 0 0 0 0 0 0 0 0 0 1 1 1 2 3 2 1 0 0 0 0 1 2
0 0 0 0 0 0 0 0 0 0 0 0 0 0 0 0 0 0 0 0 0 0 0 0 0 0 0 0 0 0 0 0 0 0 1 1 2 1 0 0 0 0 0 1
0 0 0 0 0 0 0 0 0 0 0 0 0 0 0 0 0 0 0 0 0 0 0 0 0 0 0 0 0 0 0 0 0 0 0 0 1 1 1 1 2 2 1 0
0 0 0 0 0 0 0 0 0 0 0 0 0 0 0 0 0 0 0 0 0 0 0 0 0 0 0 0 0 0 0 0 0 0 0 0 0 0 2 3 4 4 3 2
0 0 0 0 0 0 0 0 0 0 0 0 0 0 0 0 0 0 0 0 0 0 0 0 0 0 0 0 0 0 0 0 0 0 0 0 0 0 1 3 3 3 4 3
0 0 0 0 0 0 0 0 0 0 0 0 0 0 0 0 0 0 0 0 0 0 0 0 0 0 0 0 0 0 0 0 0 0 0 0 0 0 0 1 1 1 1 2
0 0 0 0 0 0 0 0 0 0 0 0 0 0 0 0 0 0 0 0 0 0 0 0 0 0 0 0 0 0 0 0 0 0 0 0 0 0 0 0 0 0 0 0
0 0 0 0 0 0 0 0 0 0 0 0 0 0 0 0 0 0 0 0 0 0 0 0 0 0 0 0 0 0 0 0 0 0 0 0 0 0 0 0 0 0 0 0
Wind_Speed
1 3 3 2 0 0 2 3 3 2 2 3 4 3 3 3 4 4 4 4 4 3 2 2 1 1 1 1 1 1 1 1 1 1 0 0 1 1 2 2 2 3 3 3
4 2 2 2 2 3 3 4 3 3 2 3 3 4 3 4 5 4 5 4 4 3 3 2 2 2 1 1 1 1 1 1 1 0 0 0 0 1 1 1 2 2 3 2
2 3 3 3 3 3 3 3 3 2 2 4 5 5 5 4 4 4 4 4 4 4 4 3 3 2 2 1 1 0 0 1 1 1 1 1 1 1 1 1 1 2 2 2
2 2 3 3 2 4 3 2 4 4 5 3 4 4 2 3 4 4 4 5 5 4 4 3 3 3 2 1 1 1 0 0 1 1 1 1 1 0 1 1 1 1 1 1
3 2 3 3 2 3 1 0 3 5 6 5 5 6 1 2 3 3 3 4 4 4 4 4 4 3 2 2 1 1 1 1 1 0 1 1 0 0 0 0 0 1 1 1
2 1 2 2 1 2 3 4 4 5 6 7 4 5 2 1 2 3 2 3 4 4 4 4 4 3 2 2 2 2 1 1 1 0 1 1 1 0 0 0 0 0 1 0
3 3 2 1 2 3 4 5 4 5 5 3 1 5 3 2 2 4 3 2 3 4 4 4 4 4 3 3 2 2 2 2 1 1 1 0 0 1 1 1 1 1 1 0
3 3 2 1 3 3 4 6 4 4 3 2 3 5 0 2 2 2 2 2 2 3 4 4 4 4 4 3 3 3 2 2 2 1 1 1 0 1 1 1 1 2 1 1
3 2 2 0 1 3 3 3 4 6 5 6 4 3 2 1 0 1 2 1 1 2 3 4 4 4 4 4 4 3 3 2 2 2 1 1 1 1 1 2 2 2 2 2
4 4 2 1 3 1 3 2 4 5 5 6 4 5 2 1 2 2 2 1 1 1 2 3 3 4 4 4 4 4 3 3 2 2 1 1 1 2 1 1 2 2 2 2
5 5 3 4 4 3 4 4 5 4 5 6 5 1 2 1 2 3 3 2 1 2 2 2 2 3 3 3 3 3 3 3 2 2 2 2 2 2 2 1 2 2 2 2
3 5 5 3 1 3 5 5 6 6 5 6 6 3 3 1 2 3 3 2 2 2 2 1 2 2 3 3 3 3 3 3 3 2 2 2 2 2 2 2 2 2 2 2
3 5 6 5 6 5 4 4 6 7 7 7 8 4 3 1 3 4 4 3 1 2 2 2 1 2 2 3 3 3 3 3 3 3 3 3 3 3 3 3 3 3 3 2
4 6 7 7 4 3 5 6 7 9 8 9 11 10 7 7 7 6 5 3 2 2 2 2 1 2 2 2 3 3 3 3 3 3 3 3 3 3 4 3 3 3 3 3
4 7 7 8 6 6 8 9 9 12 13 13 12 11 11 9 7 6 5 3 2 2 2 2 2 2 2 2 2 3 3 3 3 3 3 3 3 3 3 3 3 3 3 3
4 6 7 8 7 7 10 11 11 12 13 13 13 12 7 7 5 5 4 3 3 3 3 3 2 2 2 2 2 2 2 2 3 4 3 2 3 3 3 3 3 3 3 3
4 6 7 7 5 8 10 8 9 9 8 9 11 9 6 6 5 5 4 3 3 2 2 2 2 2 2 2 2 2 2 2 3 3 2 2 3 3 3 2 3 3 3 3
6 7 5 6 6 9 2 3 2 6 6 7 8 7 7 6 5 5 4 3 3 3 3 3 2 2 2 2 2 2 1 1 2 2 3 2 3 3 2 2 3 3 3 3
6 6 5 5 7 8 4 1 3 6 6 4 6 6 5 4 4 2 2 3 4 3 3 2 2 2 2 2 2 2 1 2 2 2 3 3 3 3 3 3 3 3 3 3
3 5 6 6 7 7 2 2 2 5 6 1 3 4 3 3 5 3 4 3 4 3 2 2 1 2 2 2 2 2 2 2 2 3 3 3 3 3 3 4 3 2 3 3
4 5 7 9 8 6 3 2 2 5 3 3 3 3 3 4 5 5 4 4 3 2 2 1 1 1 1 2 2 3 3 3 2 2 3 3 3 3 3 3 2 2 3 3
5 5 6 6 8 5 3 2 3 4 5 4 4 4 5 5 5 5 4 4 3 2 2 1 1 1 1 2 2 3 3 2 2 2 2 3 3 3 3 2 2 2 2 3
6 5 4 5 4 3 1 3 4 5 6 6 6 6 6 6 6 6 5 4 3 2 2 2 1 1 1 2 3 3 2 2 2 2 2 3 3 3 3 3 2 2 2 2
4 3 5 6 7 6 6 6 6 7 8 8 7 7 7 7 7 6 5 4 3 3 2 2 2 2 2 2 2 2 2 2 3 3 3 3 3 3 3 2 2 2 2 2
4 4 6 9 8 7 6 7 7 7 7 7 7 7 7 7 7 6 5 4 4 3 2 2 2 2 2 2 2 2 2 3 4 4 3 3 3 3 3 2 2 3 2 3
6 6 7 7 7 7 7 6 6 7 8 8 8 7 7 7 7 6 5 4 3 3 2 3 2 2 2 2 2 2 2 3 4 3 3 2 2 2 3 3 2 1 2 3
Wind_Direction
122 176 154 146 123 116 175 185 178 154 150 215 221 233 214 204 214 225 215 211 208 200 172 166 172 185 199 184 169 130 162 151 145 129 103 64 73 54 56 50 42 47 50 49
171 138 89 111 141 172 199 207 192 168 170 240 246 252 229 209 222 234 237 223 216 202 186 175 180 167 188 159 147 156 169 163 142 130 74 58 75 63 60 59 63 54 55 48
160 101 131 165 175 191 210 240 231 234 203 214 255 238 211 193 212 222 236 238 229 220 214 197 188 178 169 170 170 229 232 175 162 156 128 126 132 165 126 98 72 42 41 44
139 124 168 178 202 245 228 247 241 230 239 229 251 275 217 207 212 212 222 226 224 220 218 207 195 190 183 179 193 217 187 66 117 157 183 213 254 330 15 36 70 87 56 40
135 149 201 221 241 243 301 217 228 237 255 261 242 264 242 181 225 221 218 222 222 218 215 205 200 199 190 169 165 173 129 88 78 157 174 243 262 19 47 65 62 72 78 39
117 147 259 287 272 218 171 186 189 222 246 250 260 263 277 181 286 288 248 220 216 212 207 202 190 185 176 163 163 168 159 123 105 136 174 211 216 229 282 328 351 338 103 63
168 162 154 209 190 169 218 236 228 219 219 234 151 250 268 23 346 313 301 256 219 202 197 192 185 184 178 173 174 175 170 156 154 158 149 151 237 261 257 278 287 293 276 216
221 189 163 208 257 237 229 256 267 279 274 257 197 243 251 46 357 322 305 286 220 194 191 189 190 190 187 184 185 183 179 177 173 189 198 196 188 263 287 286 289 285 285 283
250 207 121 28 303 261 220 238 289 281 277 270 233 234 221 127 15 355 342 336 229 194 187 188 190 195 195 192 191 192 192 191 198 211 225 232 236 238 261 280 286 286 289 292
269 250 179 155 182 100 293 233 227 253 269 265 253 247 247 192 323 345 331 318 267 203 192 184 190 195 198 198 194 191 200 205 209 233 244 251 249 244 249 268 271 271 279 290
249 250 201 192 224 232 188 207 238 252 266 276 277 250 60 323 328 320 319 314 261 221 209 202 198 199 194 193 195 197 202 207 214 226 243 244 245 247 241 252 266 270 270 264
232 262 249 230 145 316 259 253 245 258 254 256 275 282 98 290 323 319 314 309 258 225 217 204 203 199 198 197 201 206 208 212 220 229 241 250 251 244 241 243 251 260 261 255
212 247 252 215 186 187 222 236 247 259 266 256 258 262 114 267 293 306 308 305 268 212 203 189 183 198 207 214 215 214 212 213 217 223 235 244 248 250 245 250 251 253 258 255
251 248 258 271 295 263 241 235 236 242 253 259 257 275 284 291 298 304 307 298 266 226 213 206 211 216 224 229 226 222 220 217 218 225 237 250 257 253 250 248 251 252 254 253
251 255 257 269 277 267 265 261 244 242 255 268 277 280 291 301 302 299 298 289 269 249 240 233 229 229 231 237 240 231 222 220 221 227 239 254 267 264 262 257 253 251 249 253
254 261 260 257 257 259 264 264 257 252 257 261 271 279 298 306 306 300 294 280 266 259 264 259 247 240 241 243 249 242 228 222 230 237 245 257 268 268 264 265 263 257 249 249
229 248 260 264 261 266 259 260 248 243 247 258 268 285 309 304 303 300 296 285 275 268 272 270 262 252 255 255 256 249 249 227 233 251 264 267 270 273 272 271 263 255 254 253
240 240 252 269 262 255 317 47 275 250 259 265 276 296 301 299 304 299 297 292 283 278 270 264 266 265 265 256 249 251 242 239 243 257 272 278 277 276 276 271 266 265 263 258
247 235 243 254 262 270 272 274 256 254 268 282 280 295 308 312 285 278 333 307 293 286 282 276 280 279 273 254 236 232 221 248 268 284 285 280 272 273 275 268 269 272 274 267
195 231 243 246 260 266 329 32 308 260 259 340 297 300 304 292 281 331 355 323 312 311 302 300 293 282 275 272 244 235 244 258 277 287 289 292 282 274 275 277 275 276 269 271
191 210 233 246 255 266 351 38 221 246 338 20 316 302 283 289 319 340 330 316 312 314 315 309 278 277 293 287 254 245 252 266 286 294 300 304 303 290 284 282 277 276 273 270
228 224 228 239 245 257 83 160 241 314 349 323 305 292 280 291 313 315 307 302 299 298 298 290 281 302 317 300 263 254 261 275 280 284 295 307 313 313 302 289 283 281 274 268
237 250 254 243 264 344 219 256 308 321 304 305 298 292 283 282 289 293 290 290 288 289 289 291 290 306 318 307 285 268 271 272 268 272 284 295 305 312 307 295 283 276 269 270
223 254 252 253 262 274 275 275 286 290 292 297 294 291 281 279 282 281 280 276 273 275 273 274 281 298 315 318 302 288 284 273 271 276 284 290 293 300 304 302 293 280 274 279
250 227 247 259 274 282 270 271 279 285 287 288 286 283 278 277 278 277 272 262 256 258 262 266 275 294 307 312 309 305 287 277 277 277 280 286 292 296 296 294 302 293 294 304
231 237 251 268 284 281 288 296 291 284 282 284 286 284 278 275 274 272 266 254 249 251 253 265 274 280 292 298 302 311 300 283 281 279 284 287 287 286 285 287 284 314 289 314